COSMOS 2251 DEB

Satellite information

Favourite Embed

Satellite Type and Status

DEBRISIN ORBIT

Key statistics

Satellite COSMOS 2251 DEB at a glance.

Uptime

11868

Days in orbit

Revolutions

≈ 14.9

Per day

Orbit

LEO

Low Earth Orbit

Inclination

74.0

Latest

Satellite identification and parameters

Extended collection of information and parameters for COSMOS 2251 DEB.

Object identification

Identified? True

Debris? True

Object name: COSMOS 2251 DEB

International designator: 1993-036BVX

Object number (NORAD): 40794

Object ID (CCSDS): 40794

Country: COMMONWEALTH OF INDEPENDENT STATES (CIS)

Current information (Y/N): Y

RCS size: SMALL

Orbital parameters

Period: 96.563 minutes

Inclination: 73.9758 deg

SMA: 6972.163 km

Apoapsis: 601.254 km

Periapsis: 586.802 km

RAAN: 149.5129 deg

Eccentricy: 0.00103638

Argument of periapsis: 264.0956 deg

Mean anomaly: 215.1976 deg

Mean motion: 14.91253423 rev/day

Mean motion (dot): 0.00047418 rev/day2

B* drag term: 0.0047311798 1/REarth

Two-line elements (TLE)

Creation date: Nov. 30, 2025, 5:58 p.m.

Reference frame: TEME

Reference center: EARTH

Epoch: Nov. 30, 2025, 4:39 a.m. UTC

TLE line 0: 0 COSMOS 2251 DEB

TLE line 1: 1 40794U 93036BVX 25334.19416990 .00047418 00000-0 47312-2 0 9994

TLE line 2: 2 40794 73.9758 149.5129 0010364 264.0956 215.1976 14.91253423617371

Live tracking on map

Real-time ground track for satellite COSMOS 2251 DEB.

In-orbit conjunctions

A list of the most updated potential collisions computed for object COSMOS 2251 DEB.

Target Orbit TCA Probability of collision Miss distance Type
CZ-6A DEB LEO 2024-12-02 07:44:14 0.0001095197 455.0 (m) DEBRIS

Associated space launch

Military communications satellite. Destroyed in a collision with Iridium 33.

COSMOS 2251 DEB was lifted into orbit during the mission ‘Kosmos-3M | Strela-2M 51’, on board a Kosmos-3M space rocket.

The launch took place on June 16, 1993, 4:17 a.m. from 132/1 (132L).

For more information about the launch, click the button.

Launch to space Kosmos-3M | Strela-2M 51
Kosmos-3M | Strela-2M 51

Agency: N/A

Status: Launch Successful

Launch date: June 16, 1993, 4:17 a.m. UTC

Rocket: Kosmos-3M

Launch pad: 132/1 (132L)

Location: Plesetsk Cosmodrome, Russian Federation

...

Latest news about this satellite

There are no fresh news available about this satellite. Check back as we update our databases every day.


Newsletter sign-up

Weekly statistics, charts and insights to help you stay on top of the space industry.